Terminal Aerodrome Forecast
Issued by NWS

Home | Current Version | Previous Version | Graphics & Text | Print | Product List | Glossary On
Versions: 1 2 3 4 5 6 7 8 9 10 11 12 13 14 15
000
FTUS43 KOAX 232100 AAA
TAFCDR
TAF AMD
KCDR 232120Z 2321/2418 30025G38KT P6SM SCT090 BKN120
     FM240100 32018KT P6SM SCT090
     FM240300 28008KT P6SM SCT090
     FM241500 29015G26KT P6SM SKC=

USA.gov is the U.S. government's official web portal to all federal, state and local government web resources and services.